Powrót do katalogu

THOR AGENA D R/B

AktywnyPO
NORAD 733·ROCKET BODY·🇺🇸 United States

Wystrzelony Jan 19, 1964 z Vandenberg Space Force Base

Loading…

Następne Przeloty (najbliższe 24 godziny)

TLE

ŚwieżeSource: Space-Track

Epoka: Sep 14, 2026, 12:47 UTC

1 00733U 64002A   26257.53293311  .00000101  00000-0  53142-4 0  9995
2 00733  99.1137 281.0786 0033761  69.3929 291.0870 14.34094379265368

Śledź THOR AGENA D R/B w czasie rzeczywistym z AllMySat

Download on the App Store